Historyczne dane pomiarowe

Dodano dane terminowe – wersja testowa.

Dane z okresu 1951-2019

Wersja bazy: 1.34 [2019-03-16, lista zmian], aktualizacja planowana na 2019-04-15

Dane meteo z obszaru Polski uzyskane na podstawie danych udostępnionych przez Instytut Meteorologii i Gospodarki Wodnej – Państwowy Instytut Badawczy.

 

Wybierz Datę:    

       

TemperaturaWilgotnośćWiatrCiśnienieOpadyŚniegCzas trwania zjawisk
 Stacja t tx tn tng RH VA  wxwx mslp ppp RRR   cm mm wxwxwxwxwxwxwx
2019-06-06 19.0 26.2 14.3 13.8-- 3.7----- 1.8------------
2019-06-05 18.9 25.4 15.0 15.6-- 4.7----- 0.0------------
2019-06-04 21.0 25.8 18.1 19.0-- 3.0----- 0.0------------
2019-06-03 21.0 27.0 16.6 17.2-- 1.3----- 0.0------------
2019-06-02 19.5 25.2 15.8 15.6-- 2.7----- 0.0------------
2019-06-01 18.8 26.4 13.0 12.0-- 3.0----- 0.0------------
2019-05-31 15.8 21.4 12.3 11.6-- 6.0----- 0.0------------
2019-05-30 16.5 24.1 11.0 9.8-- 4.3----- 0.0------------
2019-05-29 16.8 22.4 13.5 10.8-- 4.0----- 0.0------------
2019-05-28 19.1 24.8 15.8 14.8-- 5.0----- 2.6------------
2019-05-27 17.9 25.3 11.0 7.9-- 3.7----- 1.2------------
2019-05-26 16.5 22.3 9.8 6.9-- 1.0----- 0.0------------
2019-05-25 17.1 22.3 12.9 12.3-- 5.7----- 0.5------------
2019-05-24 16.4 20.8 13.4 11.3-- 6.0----- 1.0------------
2019-05-23 17.5 22.3 12.7 9.8-- 4.7----- 3.0------------
2019-05-22 15.2 19.3 12.3 11.3-- 7.3----- 0.2------------
2019-05-21 15.4 19.8 11.9 9.8-- 6.3----- 4.2------------
2019-05-20 18.2 24.9 15.2 12.8-- 3.7----- 12.7------------
2019-05-19 18.3 23.3 14.8 13.4-- 4.7----- 0.0------------
2019-05-18 17.5 24.3 11.7 8.8-- 3.3----- 7.3------------
2019-05-17 17.0 21.8 13.9 12.0-- 3.7----- 0.0------------
2019-05-16 14.0 16.8 11.5 10.0-- 5.7----- 8.7------------
2019-05-15 13.8 17.3 10.5 9.3-- 7.3----- 3.1------------
2019-05-14 11.4 13.4 7.5 8.1-- 7.3----- 6.0------------
2019-05-13 13.2 17.8 10.5 7.9-- 2.3----- 0.0------------
2019-05-12 14.0 21.3 4.5 2.0-- 1.7----- 0.0------------
2019-05-11 12.6 18.8 7.1 5.3-- 3.3----- 1.3------------
2019-05-10 11.5 15.9 6.5 3.9-- 4.3----- 0.0------------
2019-05-09 9.4 16.8 0.6 -2.0-- 1.7----- 0.0------------
2019-05-08 7.5 13.4 3.1 1.0-- 1.7----- 0.0------------
2019-05-07 9.2 13.9 5.5 5.1-- 3.0----- 0.0------------
2019-05-06 6.3 10.0 4.5 3.9-- 8.0----- 11.5------------
2019-05-05 9.8 11.9 8.5 7.4-- 7.7----- 17.0------------
2019-05-04 8.9 14.4 3.3 2.9-- 3.7----- 1.2------------
2019-05-03 9.0 16.3 3.1 1.0-- 4.0----- 2.0------------
2019-05-02 12.2 17.8 5.0 3.4-- 3.7----- 0.0------------
2019-05-01 11.9 17.3 8.0 7.9-- 3.3----- 0.0------------
2019-04-30 10.2 12.4 9.0 8.8-- 6.0----- 0.6------------
2019-04-29 13.0 15.4 11.9 11.3-- 7.0----- 9.1------------
2019-04-28 13.9 17.9 11.5 10.8-- 6.3----- 6.3------------
2019-04-27 17.0 24.8 10.0 7.9-- 2.3----- 0.0------------
2019-04-26 18.7 27.3 11.0 7.4-- 1.0----- 0.0------------
2019-04-25 15.0 23.3 8.5 6.4-- 3.7----- 0.0------------
2019-04-24 12.7 19.3 6.0 3.9-- 3.0----- 0.0------------
2019-04-23 11.4 18.8 4.4 -1.5-- 1.0----- 0.0------------
2019-04-22 5.5 8.5 4.1 2.5-- 3.7----- 0.0------------
2019-04-21 8.6 14.4 4.1 1.0-- 4.7----- 3.2------------
2019-04-20 8.9 19.3 -1.4 -3.6-- 1.3----- 0.3------------
2019-04-19 11.4 17.9 5.5 3.9-- 1.0----- 0.0------------
2019-04-18 9.9 18.8 1.1 -2.0-- 1.3----- 0.0------------
2019-04-17 10.4 17.3 4.5 4.1-- 4.3----- 0.0------------
2019-04-16 2.7 7.5 -1.7 0.5-- 5.0----- 5.1------------
2019-04-15 4.2 9.5 -1.4 -4.6-- 1.3----- 0.0------------
2019-04-14 6.9 13.1 1.7 0.5-- 1.0----- 0.0------------
2019-04-13 7.2 11.5 3.1 1.0-- 2.0----- 0.0------------
2019-04-12 4.4 8.0 2.1 1.5-- 1.7----- 0.0------------
2019-04-11 6.2 10.0 4.5 4.4-- 2.3----- 0.0------------
2019-04-10 7.3 12.9 3.1 2.9-- 3.0----- 0.0------------
2019-04-09 10.9 17.3 4.5 2.9-- 3.3----- 0.0------------
2019-04-08 10.5 18.8 2.6 1.0-- 1.3----- 0.0------------
227.8 ms

 

Źródłem pochodzenia danych jest Instytut Meteorologii i Gospodarki Wodnej – Państwowy Instytut Badawczy. Dane Instytutu Meteorologii i Gospodarki Wodnej – Państwowego Instytutu Badawczego zostały przetworzone.

Dane źródłowe można odnaleźć na stronie https://dane.imgw.pl